Regional Weather Roundup
Issued by NWS

Home | Current Version | Previous Version | Graphics & Text | Print | Product List | Glossary On
Versions: 1 2 3 4 5 6 7 8 9 10 11 12 13 14 15 16 17 18 19 20 21 22 23 24 25 26 27 28 29 30 31 32 33 34 35 36 37 38 39 40 41 42 43 44 45 46 47 48 49 50
000
ASUS43 KFSD 051110
RWRSD

WEATHER ROUNDUP FOR SOUTH DAKOTA
NATIONAL WEATHER SERVICE SIOUX FALLS SD
500 AM CST FRI FEB 05 2016

NOTE: "FAIR" INDICATES FEW OR NO CLOUDS BELOW 12,000 FEET WITH NO
SIGNIFICANT WEATHER AND/OR OBSTRUCTIONS TO VISIBILITY.


SDZ001>005-009-010-012>017-051200-
NORTHWEST AND NORTH CENTRAL SOUTH DAKOTA

CITY           SKY/WX    TMP DP  RH WIND       PRES   REMARKS
BUFFALO          N/A     31  28  89 W20       30.03R WCI  19
FAITH            N/A     31  24  75 NW17      30.07R WCI  19
MOBRIDGE       CLOUDY    27  22  81 E5        30.04S WCI  22
$$

SDZ012>016-024>037-041>051-057-063-072>074-051200-
SOUTHWEST AND SOUTH CENTRAL SOUTH DAKOTA

CITY           SKY/WX    TMP DP  RH WIND       PRES   REMARKS
RAPID CTY ARPT CLEAR     31  22  69 NW14      30.11R WCI  21
PIERRE         CLOUDY    27  21  78 SW7       30.09S WCI  19
CUSTER         CLEAR     25  16  68 NW14G32   30.05S WCI  13
ELLSWORTH AFB  CLEAR     29  23  78 NW18      30.10R WCI  17
PHILIP         CLOUDY    36  27  69 W15       30.11S
PINE RIDGE     PTCLDY    26  17  68 W3        30.15R
SPEARFISH      HVY SNOW  28  27  93 NW14      30.13S WCI  17
WINNER         FAIR      29  19  66 SW8       30.12S WCI  21
$$

SDZ004>011-016>023-039-040-051200-
NORTHEAST SOUTH DAKOTA

CITY           SKY/WX    TMP DP  RH WIND       PRES   REMARKS
ABERDEEN       CLOUDY    22  17  81 S9        30.12S WCI  12
WATERTOWN      CLOUDY    15  10  80 S13       30.13F WCI   1
BROOKINGS      CLOUDY    12   9  87 SE14      30.17F WCI  -3
SISSETON         N/A     25  17  72 S13       30.13F WCI  14
$$

SDZ017-020-022-023-036>040-048>070-051200-
SOUTHEAST SOUTH DAKOTA

CITY           SKY/WX    TMP DP  RH WIND       PRES   REMARKS
SIOUX FALLS    CLOUDY    16  11  80 S8        30.23F WCI   5
HURON          CLOUDY    21  16  81 S13       30.14F WCI   9
CHAMBERLAIN    CLOUDY    24  20  85 S5        30.12S WCI  18
MITCHELL       CLOUDY    21  15  78 S12       30.18S WCI   9
YANKTON        CLOUDY    10   3  72 E3        30.24S
$$

ABBREVIATIONS USED IN REMARKS
   TC - TEMPERATURE IN CELSIUS
  WCI - WIND CHILL INDEX
   HX - HEAT INDEX
  VSB - VISIBILITY




USA.gov is the U.S. government's official web portal to all federal, state and local government web resources and services.